Погода в Блэкуотере

Австралия     23°34′58″S   148°52′41″E
темп.,
°C
ветер,
м/с
пор.,
м/с
влажн.,
%
обл.,
%
осадки,
мм/ч
давл.,
гПа
погр.,
м
19 мая, ср
ср1901:00+15юв46630 0.0 102372
04:00+14юв59710 0.0 1022131
07:00+14ююв48760 0.0 1024144
10:00+21вюв99490 0.0 10241097
13:00+25вюв78370 0.0 10201894
16:00+26вюв683223 0.0 10192520
19:00+20всв7135881 0.1 1021419
22:00+17вюв510790 0.1 1023263
20 мая, чт
чт2001:00+16юв713780 0.0 1022319
04:00+15юв713770 0.0 1021291
07:00+15юв713790 0.0 1023316
10:00+21вюв911510 0.0 10241109
13:00+25вюв77350 0.0 10201802
16:00+25вюв67300 0.0 10192245
19:00+20всв6105870 0.0 1022283
22:00+18вюв510725 0.0 1023290
21 мая, пт
пт2101:00+16юв58785 0.0 1023134
04:00+14юв48755 0.0 1022141
07:00+14юв48685 0.0 1023152
10:00+21вюв89435 0.0 1023999
13:00+24вюв78344 0.0 10191773
16:00+25вюв67294 0.0 10182260
19:00+19вюв44381 0.0 102036
22:00+17юв45588 0.0 102177
22 мая, сб
сб2201:00+15юв58691 0.0 1021144
04:00+15юв6127335 0.0 1020267
07:00+14юв5106958 0.0 1021213
10:00+21вюв894787 0.0 1021868
13:00+24вюв673963 0.0 10181562
16:00+25вюв5538100 0.0 10161834
19:00+21в3552100 0.0 1018136
22:00+18вюв5118097 0.3 1019366
23 мая, вс
вс2301:00+16вюв48825 0.0 1020155
04:00+15юв510805 0.0 1019193
07:00+15юв510784 0.0 1020217
10:00+22вюв910550 0.0 1021907
13:00+25вюв784224 0.0 10181751
16:00+24всв6743100 0.0 10181116
19:00+22всв6105099 0.0 1019413
22:00+18в58721 0.0 1021150